Weather in Kasnya

Russia / Smolensk Oblast     55°23′52″N   34°19′08″E
temp.,
°C
wind,
m/s
gust,
m/s
humid.,
%
clouds,
%
prec.,
mm/h
press.,
hPa
HPBL,
m
24 may, tue
tue2400:00+4nnw397127 0.0 1008150
03:00+2nw3865100 0.0 1009156
06:00+4nw31065100 0.0 1009258
09:00+10nw51045100 0.0 1009700
12:00+13nnw6103894 0.0 10081879
15:00+15nnw7103083 0.0 10092250
18:00+13n4104618 0.0 10101868
21:00+6ene388230 0.0 1013199
25 may, wed
wed2500:00+4ene119165 0.0 101511
03:00+2nnw119365 0.0 101610
06:00+4nnw128399 0.0 101680
09:00+7n1269100 0.0 1017477
12:00+11nw245796 0.0 10161299
15:00+13nne255617 0.0 10151188
18:00+13e32625 0.0 1013341
21:00+7ese3693100 0.0 1014110
26 may, thu
thu2600:00+6sse369498 0.0 1014107
03:00+7sw238762 0.0 101249
06:00+10sw3577100 0.0 1010100
09:00+14sw3673100 0.2 1008342
12:00+17sw3552100 0.5 10071526
15:00+16sw5664100 0.6 1005978
18:00+11w4993100 0.8 1005558
21:00+10sw3698100 1.8 1005282
27 may, fri
fri2700:00+7sw399816 0.0 1004215
03:00+8sw4119772 0.3 1002320
06:00+9w61295100 0.8 1001738
09:00+9w6119398 0.9 1002839
12:00+13w7117010 0.4 10021400
15:00+15wsw71047100 0.6 10022454
18:00+14sw51057100 0.0 10011760
21:00+11sw51078100 0.1 1001573
28 may, sat
sat2800:00+9sw51093100 1.1 1000596
03:00+8sw3898100 1.4 999541
06:00+8wsw5109179 0.5 999719
09:00+8wsw61081100 0.6 10001167
12:00+12wsw7105582 0.1 10001964
15:00+11wsw5967100 0.8 10011381
18:00+10wsw588298 1.2 1002957
21:00+7sw5119288 2.3 1003494